Flag for Germany Weather past 2 weeks in Neuwied, Rhineland-Palatinate, Germany

Now
50 °F

Light rain. Fog.


Feels Like: 48 °F
Forecast: 38 / 55 °F
Wind: 6 mph from North

Location: Buechel

Current Time: Apr 27, 2015 at 6:43:49 AM

Latest Report: Apr 27, 2015 at 5:20 AM


Visibility: 3 mi

Pressure: 29.59 "Hg

Humidity: 94%

Dew point: 48 °F

Location of NeuwiedLocation

Historic Weather in Neuwied — Graph

°F

Neuwied temperature yesterday

Maximum temperature yesterday: 61 °F (at 3:20 PM)
Minimum temperature yesterday: 48 °F (at 12:20 AM)
Average temperature yesterday: 54 °F

Past Weeks' High & Low Weather Summary

 TemperatureHumidityPressure
High72 °F (Apr 15, 4:20 PM)100% (Apr 25, 11:20 AM)30.45 "Hg (Apr 25, 11:20 AM)
Low36 °F (Apr 18, 4:20 AM)23% (Apr 21, 4:20 PM)29.59 "Hg (Apr 27, 1:20 AM)
Average52 °F58%30.13 "Hg
* Reported Apr 12 4:20 AM — Apr 27 4:20 AM, Neuwied, Weather by CustomWeather, © 2015

Note: Actual official high and low records may vary slightly from our data, if they occured in-between our weather recording intervals... More about our weather records

Advertising

Neuwied weather history for previous 24 hours

 ConditionsComfort  
Time TempWeatherWind HumidityBarometerVisibility
4:20 AM
Mon, Apr 27
50 °FLight rain. Mostly cloudy.5 mph94%29.59 "HgN/A
3:20 AM50 °FCool.9 mph94%29.59 "Hg6 mi
2:20 AM50 °FCool.3 mph100%29.59 "Hg1 mi
1:20 AM52 °FCool.7 mph94%29.59 "Hg5 mi
12:20 AM52 °FCool.12 mph94%29.62 "Hg1 mi
11:20 PM
Sun, Apr 26
52 °FCool.8 mph94%29.65 "Hg2 mi
10:20 PM52 °FCool.7 mph100%29.65 "Hg2 mi
9:20 PM54 °FCool.6 mph82%29.68 "Hg5 mi
8:20 PM59 °FCool.5 mph63%29.65 "HgN/A
7:20 PM61 °FRefreshingly cool.3 mph55%29.65 "HgN/A
6:20 PM61 °FRefreshingly cool.6 mph55%29.68 "HgN/A
5:20 PM61 °FRefreshingly cool.7 mph59%29.68 "HgN/A
4:20 PM61 °FRefreshingly cool.10 mph55%29.71 "HgN/A
3:20 PM61 °FCool.10 mph63%29.71 "HgN/A
2:20 PM59 °FCool.9 mph63%29.74 "HgN/A
1:20 PM59 °FCool.12 mph68%29.77 "HgN/A
12:20 PM55 °FCool.9 mph77%29.77 "HgN/A
11:20 AM54 °FCool.10 mph88%29.77 "HgN/A
10:20 AM52 °FCool.10 mph94%29.77 "HgN/A
9:20 AM52 °FCool.9 mph94%29.77 "HgN/A
8:20 AM52 °FCool.8 mph94%29.77 "Hg5 mi
7:20 AM50 °FCool.10 mph100%29.77 "Hg5 mi
6:20 AM50 °FCool.8 mph100%29.77 "Hg4 mi
Weather by CustomWeather, © 2015

See weather overviewHow to use our weather pages